TimeMST,TemperatureF,Dew PointF,Humidity,Sea Level PressureIn,VisibilityMPH,Wind Direction,Wind SpeedMPH,Gust SpeedMPH,PrecipitationIn,Events,Conditions,WindDirDegrees,DateUTC
12:15 AM,30.9,29.1,93,30.20,10.0,Calm,Calm,-,N/A,,Mostly Cloudy,0,2013-03-01 07:15:00
12:35 AM,30.2,28.4,93,30.21,10.0,Calm,Calm,-,N/A,,Overcast,0,2013-03-01 07:35:00
1:15 AM,29.5,27.9,94,30.21,10.0,Calm,Calm,-,N/A,,Scattered Clouds,0,2013-03-01 08:15:00
1:35 AM,25.9,24.1,93,30.20,7.0,West,4.6,-,N/A,,Clear,260,2013-03-01 08:35:00
1:55 AM,25.3,23.9,94,30.19,7.0,Calm,Calm,-,N/A,,Clear,0,2013-03-01 08:55:00
2:35 AM,26.4,25.2,95,30.20,7.0,NW,3.5,-,N/A,,Mostly Cloudy,320,2013-03-01 09:35:00
2:55 AM,26.4,25.2,95,30.20,2.5,West,3.5,-,N/A,,Overcast,260,2013-03-01 09:55:00
3:15 AM,26.4,25.2,95,30.21,10.0,Calm,Calm,-,N/A,,Scattered Clouds,0,2013-03-01 10:15:00
3:35 AM,25.5,23.9,94,30.22,10.0,West,3.5,-,N/A,,Clear,280,2013-03-01 10:35:00
3:55 AM,25.7,23.9,93,30.22,10.0,NW,3.5,-,N/A,,Clear,310,2013-03-01 10:55:00
4:15 AM,24.4,22.3,91,30.22,10.0,West,3.5,-,N/A,,Clear,280,2013-03-01 11:15:00
4:35 AM,25.2,23.0,91,30.23,10.0,NW,4.6,-,N/A,,Clear,320,2013-03-01 11:35:00
4:55 AM,24.8,21.9,89,30.23,10.0,WNW,4.6,-,N/A,,Scattered Clouds,300,2013-03-01 11:55:00
5:15 AM,26.8,23.7,88,30.23,10.0,NW,13.8,-,N/A,,Scattered Clouds,320,2013-03-01 12:15:00
5:35 AM,27.0,23.4,86,30.23,10.0,NW,15.0,-,N/A,,Scattered Clouds,320,2013-03-01 12:35:00
5:55 AM,26.6,23.0,86,30.23,10.0,NW,12.7,-,N/A,,Clear,320,2013-03-01 12:55:00
6:15 AM,26.2,22.6,86,30.22,10.0,NW,11.5,-,N/A,,Clear,320,2013-03-01 13:15:00
6:35 AM,25.7,22.3,87,30.22,10.0,NW,12.7,-,N/A,,Clear,320,2013-03-01 13:35:00
6:55 AM,27.3,23.4,85,30.23,10.0,NNW,12.7,-,N/A,,Clear,330,2013-03-01 13:55:00
7:15 AM,28.9,24.4,83,30.24,10.0,NW,15.0,-,N/A,,Clear,320,2013-03-01 14:15:00
7:35 AM,30.0,25.2,82,30.25,10.0,NNW,16.1,-,N/A,,Clear,330,2013-03-01 14:35:00
7:55 AM,31.1,26.2,82,30.26,10.0,NNW,13.8,-,N/A,,Clear,330,2013-03-01 14:55:00
8:15 AM,32.0,26.6,80,30.27,10.0,NNW,15.0,-,N/A,,Clear,330,2013-03-01 15:15:00
8:35 AM,32.5,27.1,80,30.27,10.0,NNW,16.1,-,N/A,,Clear,330,2013-03-01 15:35:00
8:55 AM,33.8,27.5,78,30.27,10.0,NNW,15.0,-,N/A,,Clear,340,2013-03-01 15:55:00
9:15 AM,34.2,27.1,75,30.27,10.0,NNW,15.0,-,N/A,,Clear,340,2013-03-01 16:15:00
9:35 AM,34.7,27.7,76,30.27,10.0,NNW,15.0,-,N/A,,Clear,340,2013-03-01 16:35:00
10:15 AM,37.8,27.9,67,30.27,10.0,NNW,18.4,-,N/A,,Clear,340,2013-03-01 17:15:00
10:35 AM,38.8,27.7,64,30.27,10.0,North,15.0,20.7,N/A,,Clear,360,2013-03-01 17:35:00
11:15 AM,40.1,26.2,58,30.27,10.0,North,18.4,25.3,N/A,,Clear,350,2013-03-01 18:15:00
11:35 AM,41.0,26.6,57,30.27,10.0,North,16.1,-,N/A,,Clear,360,2013-03-01 18:35:00
11:55 AM,41.0,26.2,56,30.26,10.0,North,16.1,21.9,N/A,,Clear,360,2013-03-01 18:55:00
12:15 PM,41.7,25.5,53,30.26,10.0,North,16.1,24.2,N/A,,Clear,350,2013-03-01 19:15:00
12:35 PM,41.5,25.2,52,30.25,10.0,North,15.0,-,N/A,,Clear,360,2013-03-01 19:35:00
12:55 PM,42.3,25.0,50,30.24,10.0,NNW,17.3,-,N/A,,Clear,330,2013-03-01 19:55:00
1:15 PM,41.2,23.9,50,30.24,10.0,North,13.8,18.4,N/A,,Clear,10,2013-03-01 20:15:00
1:35 PM,41.7,24.1,50,30.23,10.0,NNW,12.7,-,N/A,,Clear,340,2013-03-01 20:35:00
1:55 PM,43.2,23.4,46,30.23,10.0,North,15.0,-,N/A,,Clear,350,2013-03-01 20:55:00
2:15 PM,43.0,22.3,44,30.23,10.0,North,9.2,19.6,N/A,,Clear,350,2013-03-01 21:15:00
2:35 PM,43.7,22.5,43,30.23,10.0,North,10.4,19.6,N/A,,Clear,360,2013-03-01 21:35:00
2:55 PM,44.4,22.6,42,30.23,10.0,North,11.5,-,N/A,,Clear,360,2013-03-01 21:55:00
3:15 PM,44.1,20.7,39,30.22,10.0,North,13.8,-,N/A,,Clear,350,2013-03-01 22:15:00
3:35 PM,44.1,19.6,38,30.23,10.0,North,13.8,-,N/A,,Clear,360,2013-03-01 22:35:00
3:55 PM,44.2,19.4,37,30.23,10.0,North,13.8,-,N/A,,Clear,360,2013-03-01 22:55:00
4:15 PM,44.1,19.2,37,30.23,10.0,North,11.5,-,N/A,,Clear,350,2013-03-01 23:15:00
4:35 PM,43.3,21.2,41,30.23,10.0,North,10.4,-,N/A,,Clear,10,2013-03-01 23:35:00
4:55 PM,42.3,21.9,44,30.24,10.0,ENE,4.6,-,N/A,,Clear,60,2013-03-01 23:55:00
5:15 PM,41.0,22.3,47,30.25,10.0,Calm,Calm,-,N/A,,Clear,0,2013-03-02 00:15:00
5:35 PM,39.4,22.1,50,30.25,10.0,ESE,3.5,-,N/A,,Clear,120,2013-03-02 00:35:00
5:55 PM,38.8,22.6,52,30.26,10.0,East,3.5,-,N/A,,Clear,100,2013-03-02 00:55:00
6:15 PM,36.5,24.4,62,30.26,10.0,East,4.6,-,N/A,,Scattered Clouds,100,2013-03-02 01:15:00
6:35 PM,34.2,26.2,73,30.25,10.0,SSE,3.5,-,N/A,,Scattered Clouds,150,2013-03-02 01:35:00
7:15 PM,31.3,26.1,81,30.27,10.0,Calm,Calm,-,N/A,,Scattered Clouds,0,2013-03-02 02:15:00
7:35 PM,31.3,25.7,80,30.27,10.0,Calm,Calm,-,N/A,,Scattered Clouds,0,2013-03-02 02:35:00
7:55 PM,29.3,25.2,85,30.27,10.0,Calm,Calm,-,N/A,,Scattered Clouds,0,2013-03-02 02:55:00
8:15 PM,30.4,25.5,82,30.27,10.0,West,3.5,-,N/A,,Clear,270,2013-03-02 03:15:00
8:35 PM,29.1,25.2,85,30.27,10.0,West,3.5,-,N/A,,Clear,270,2013-03-02 03:35:00
8:55 PM,29.5,25.2,84,30.27,10.0,West,3.5,-,N/A,,Scattered Clouds,280,2013-03-02 03:55:00
9:15 PM,30.2,26.8,87,30.27,10.0,Calm,Calm,-,N/A,,Overcast,0,2013-03-02 04:15:00
9:35 PM,31.5,27.3,85,30.25,10.0,WNW,3.5,-,N/A,,Overcast,290,2013-03-02 04:35:00
9:55 PM,32.0,27.3,83,30.25,10.0,Calm,Calm,-,N/A,,Overcast,0,2013-03-02 04:55:00
10:15 PM,32.0,27.3,83,30.25,10.0,Calm,Calm,-,N/A,,Overcast,0,2013-03-02 05:15:00
10:35 PM,32.0,27.1,82,30.25,10.0,Calm,Calm,-,N/A,,Overcast,0,2013-03-02 05:35:00
10:55 PM,31.5,27.1,84,30.25,10.0,Calm,Calm,-,N/A,,Overcast,0,2013-03-02 05:55:00
11:15 PM,32.0,27.1,82,30.25,10.0,Calm,Calm,-,N/A,,Overcast,0,2013-03-02 06:15:00
11:35 PM,32.0,27.7,84,30.24,10.0,Calm,Calm,-,N/A,,Overcast,0,2013-03-02 06:35:00
11:55 PM,32.0,27.1,82,30.24,10.0,Calm,Calm,-,N/A,,Mostly Cloudy,0,2013-03-02 06:55:00